Time,TemperatureF,DewpointF,PressureIn,WindDirection,WindDirectionDegrees,WindSpeedMPH,WindSpeedGustMPH,Humidity,HourlyPrecipIn,Conditions,Clouds,dailyrainin,SoftwareType,DateUTC
2013-01-17 00:00:00,34.1,32.0,29.90,South,169,2.0,6.0,92,0.00,,,0.00,HR-IXPWINDi_r2_v1.2.,2013-01-17 05:00:00,
2013-01-17 00:05:00,34.0,31.6,29.90,South,175,7.0,7.0,91,0.00,,,0.00,HR-IXPWINDi_r2_v1.2.,2013-01-17 05:05:00,
2013-01-17 00:10:00,34.0,31.6,29.90,SW,220,5.0,7.0,91,0.00,,,0.00,HR-IXPWINDi_r2_v1.2.,2013-01-17 05:10:00,
2013-01-17 00:15:00,34.0,31.6,29.90,South,190,2.0,7.0,91,0.00,,,0.00,HR-IXPWINDi_r2_v1.2.,2013-01-17 05:15:00,
2013-01-17 00:21:00,33.9,31.5,29.91,South,188,2.0,7.0,91,0.00,,,0.00,HR-IXPWINDi_r2_v1.2.,2013-01-17 05:21:00,
2013-01-17 00:26:00,34.0,31.6,29.91,South,187,1.0,8.0,91,0.00,,,0.00,HR-IXPWINDi_r2_v1.2.,2013-01-17 05:26:00,
2013-01-17 00:31:00,33.9,31.5,29.91,South,173,3.0,8.0,91,0.00,,,0.00,HR-IXPWINDi_r2_v1.2.,2013-01-17 05:31:00,
2013-01-17 00:36:00,33.9,31.5,29.92,South,177,2.0,7.0,91,0.00,,,0.00,HR-IXPWINDi_r2_v1.2.,2013-01-17 05:36:00,
2013-01-17 00:41:00,33.7,31.6,29.92,South,191,1.0,7.0,92,0.00,,,0.00,HR-IXPWINDi_r2_v1.2.,2013-01-17 05:41:00,
2013-01-17 00:46:00,33.7,31.6,29.92,South,173,2.0,6.0,92,0.00,,,0.00,HR-IXPWINDi_r2_v1.2.,2013-01-17 05:46:00,
2013-01-17 00:51:00,33.8,31.4,29.92,South,190,1.0,6.0,91,0.00,,,0.00,HR-IXPWINDi_r2_v1.2.,2013-01-17 05:51:00,
2013-01-17 00:57:00,33.5,31.4,29.91,South,184,1.0,5.0,92,0.00,,,0.00,HR-IXPWINDi_r2_v1.2.,2013-01-17 05:57:00,
2013-01-17 01:02:00,33.4,31.3,29.92,SSE,166,2.0,3.0,92,0.00,,,0.00,HR-IXPWINDi_r2_v1.2.,2013-01-17 06:02:00,
2013-01-17 01:07:00,33.3,31.2,29.92,SW,230,1.0,4.0,92,0.00,,,0.00,HR-IXPWINDi_r2_v1.2.,2013-01-17 06:07:00,
2013-01-17 01:12:00,33.2,31.1,29.92,South,189,1.0,6.0,92,0.00,,,0.00,HR-IXPWINDi_r2_v1.2.,2013-01-17 06:12:00,
2013-01-17 01:18:00,33.1,31.3,29.92,SSW,192,1.0,6.0,93,0.00,,,0.00,HR-IXPWINDi_r2_v1.2.,2013-01-17 06:18:00,
2013-01-17 01:23:00,33.0,31.2,29.92,South,191,0.0,4.0,93,0.00,,,0.00,HR-IXPWINDi_r2_v1.2.,2013-01-17 06:23:00,
2013-01-17 01:28:00,32.8,31.0,29.92,South,174,1.0,2.0,93,0.00,,,0.00,HR-IXPWINDi_r2_v1.2.,2013-01-17 06:28:00,
2013-01-17 01:33:00,32.7,30.9,29.92,South,171,1.0,3.0,93,0.00,,,0.00,HR-IXPWINDi_r2_v1.2.,2013-01-17 06:33:00,
2013-01-17 01:39:00,32.6,30.8,29.93,South,174,1.0,7.0,93,0.00,,,0.00,HR-IXPWINDi_r2_v1.2.,2013-01-17 06:39:00,
2013-01-17 01:44:00,32.7,30.9,29.92,South,177,0.0,7.0,93,0.00,,,0.00,HR-IXPWINDi_r2_v1.2.,2013-01-17 06:44:00,
2013-01-17 01:49:00,32.5,30.7,29.93,South,181,1.0,5.0,93,0.00,,,0.00,HR-IXPWINDi_r2_v1.2.,2013-01-17 06:49:00,
2013-01-17 01:54:00,32.7,30.9,29.93,SSE,150,1.0,5.0,93,0.00,,,0.00,HR-IXPWINDi_r2_v1.2.,2013-01-17 06:54:00,
2013-01-17 01:59:00,32.9,31.1,29.93,South,177,1.0,5.0,93,0.00,,,0.00,HR-IXPWINDi_r2_v1.2.,2013-01-17 06:59:00,
2013-01-17 02:04:00,33.1,31.0,29.93,SSW,195,1.0,4.0,92,0.00,,,0.00,HR-IXPWINDi_r2_v1.2.,2013-01-17 07:04:00,
2013-01-17 02:10:00,33.2,31.1,29.93,South,184,0.0,4.0,92,0.00,,,0.00,HR-IXPWINDi_r2_v1.2.,2013-01-17 07:10:00,
2013-01-17 02:15:00,33.2,30.8,29.93,SSW,192,1.0,3.0,91,0.00,,,0.00,HR-IXPWINDi_r2_v1.2.,2013-01-17 07:15:00,
2013-01-17 02:20:00,33.4,30.8,29.93,SSW,206,1.0,6.0,90,0.00,,,0.00,HR-IXPWINDi_r2_v1.2.,2013-01-17 07:20:00,
2013-01-17 02:25:00,33.5,30.9,29.93,SSW,195,3.0,7.0,90,0.00,,,0.00,HR-IXPWINDi_r2_v1.2.,2013-01-17 07:25:00,
2013-01-17 02:30:00,33.6,31.0,29.93,SSW,202,3.0,7.0,90,0.00,,,0.00,HR-IXPWINDi_r2_v1.2.,2013-01-17 07:30:00,
2013-01-17 02:35:00,33.5,30.9,29.93,SSE,163,1.0,7.0,90,0.00,,,0.00,HR-IXPWINDi_r2_v1.2.,2013-01-17 07:35:00,
2013-01-17 02:41:00,33.7,30.8,29.93,SSW,202,2.0,8.0,89,0.00,,,0.00,HR-IXPWINDi_r2_v1.2.,2013-01-17 07:41:00,
2013-01-17 02:46:00,33.5,30.6,29.93,SSW,211,0.0,8.0,89,0.00,,,0.00,HR-IXPWINDi_r2_v1.2.,2013-01-17 07:46:00,
2013-01-17 02:51:00,33.6,30.7,29.93,South,174,1.0,9.0,89,0.00,,,0.00,HR-IXPWINDi_r2_v1.2.,2013-01-17 07:51:00,
2013-01-17 02:57:00,33.6,30.7,29.94,SSW,197,2.0,9.0,89,0.00,,,0.00,HR-IXPWINDi_r2_v1.2.,2013-01-17 07:57:00,
2013-01-17 03:02:00,33.6,30.7,29.94,South,176,3.0,8.0,89,0.00,,,0.00,HR-IXPWINDi_r2_v1.2.,2013-01-17 08:02:00,
2013-01-17 03:07:00,33.6,30.4,29.94,South,191,4.0,6.0,88,0.00,,,0.00,HR-IXPWINDi_r2_v1.2.,2013-01-17 08:07:00,
2013-01-17 03:12:00,33.9,30.4,29.94,South,182,1.0,10.0,87,0.00,,,0.00,HR-IXPWINDi_r2_v1.2.,2013-01-17 08:12:00,
2013-01-17 03:17:00,33.9,30.4,29.94,SSW,206,3.0,10.0,87,0.00,,,0.00,HR-IXPWINDi_r2_v1.2.,2013-01-17 08:17:00,
2013-01-17 03:22:00,34.0,30.5,29.94,SSE,167,3.0,5.0,87,0.00,,,0.00,HR-IXPWINDi_r2_v1.2.,2013-01-17 08:22:00,
2013-01-17 03:27:00,34.1,30.3,29.94,WSW,239,3.0,7.0,86,0.00,,,0.00,HR-IXPWINDi_r2_v1.2.,2013-01-17 08:27:00,
2013-01-17 03:33:00,34.2,30.4,29.94,SSW,209,1.0,7.0,86,0.00,,,0.00,HR-IXPWINDi_r2_v1.2.,2013-01-17 08:33:00,
2013-01-17 03:38:00,34.2,30.1,29.93,SW,232,2.0,8.0,85,0.00,,,0.00,HR-IXPWINDi_r2_v1.2.,2013-01-17 08:38:00,
2013-01-17 03:43:00,34.2,30.1,29.92,SSW,200,0.0,8.0,85,0.00,,,0.00,HR-IXPWINDi_r2_v1.2.,2013-01-17 08:43:00,
2013-01-17 03:49:00,34.1,30.0,29.93,SSW,209,1.0,5.0,85,0.00,,,0.00,HR-IXPWINDi_r2_v1.2.,2013-01-17 08:49:00,
2013-01-17 03:54:00,34.2,30.1,29.93,SSW,211,0.0,5.0,85,0.00,,,0.00,HR-IXPWINDi_r2_v1.2.,2013-01-17 08:54:00,
2013-01-17 03:59:00,34.1,30.0,29.93,SSW,193,1.0,6.0,85,0.00,,,0.00,HR-IXPWINDi_r2_v1.2.,2013-01-17 08:59:00,
2013-01-17 04:04:00,34.2,30.1,29.93,SSW,208,3.0,6.0,85,0.00,,,0.00,HR-IXPWINDi_r2_v1.2.,2013-01-17 09:04:00,
2013-01-17 04:09:00,34.1,30.0,29.93,SSW,211,4.0,6.0,85,0.00,,,0.00,HR-IXPWINDi_r2_v1.2.,2013-01-17 09:09:00,
2013-01-17 04:14:00,34.2,29.8,29.93,SW,218,3.0,7.0,84,0.00,,,0.00,HR-IXPWINDi_r2_v1.2.,2013-01-17 09:14:00,
2013-01-17 04:20:00,34.1,30.0,29.93,SSW,208,2.0,7.0,85,0.00,,,0.00,HR-IXPWINDi_r2_v1.2.,2013-01-17 09:20:00,
2013-01-17 04:25:00,34.0,29.9,29.92,SSW,213,2.0,5.0,85,0.00,,,0.00,HR-IXPWINDi_r2_v1.2.,2013-01-17 09:25:00,
2013-01-17 04:30:00,34.0,29.9,29.93,SW,220,3.0,8.0,85,0.00,,,0.00,HR-IXPWINDi_r2_v1.2.,2013-01-17 09:30:00,
2013-01-17 04:35:00,33.9,29.8,29.93,SSW,197,4.0,8.0,85,0.00,,,0.00,HR-IXPWINDi_r2_v1.2.,2013-01-17 09:35:00,
2013-01-17 04:41:00,33.9,29.8,29.93,SW,216,4.0,8.0,85,0.00,,,0.00,HR-IXPWINDi_r2_v1.2.,2013-01-17 09:41:00,
2013-01-17 04:46:00,33.8,29.7,29.94,SSW,198,2.0,8.0,85,0.00,,,0.00,HR-IXPWINDi_r2_v1.2.,2013-01-17 09:46:00,
2013-01-17 04:51:00,33.7,29.6,29.93,SSE,160,0.0,6.0,85,0.00,,,0.00,HR-IXPWINDi_r2_v1.2.,2013-01-17 09:51:00,
2013-01-17 04:56:00,33.6,29.8,29.93,West,264,0.0,5.0,86,0.00,,,0.00,HR-IXPWINDi_r2_v1.2.,2013-01-17 09:56:00,
2013-01-17 05:01:00,33.4,29.6,29.94,South,190,0.0,3.0,86,0.00,,,0.00,HR-IXPWINDi_r2_v1.2.,2013-01-17 10:01:00,
2013-01-17 05:06:00,33.3,29.5,29.94,SSW,205,1.0,3.0,86,0.00,,,0.00,HR-IXPWINDi_r2_v1.2.,2013-01-17 10:06:00,
2013-01-17 05:11:00,33.4,29.4,29.94,South,190,4.0,4.0,85,0.00,,,0.00,HR-IXPWINDi_r2_v1.2.,2013-01-17 10:11:00,
2013-01-17 05:17:00,33.5,29.5,29.94,SW,215,2.0,5.0,85,0.00,,,0.00,HR-IXPWINDi_r2_v1.2.,2013-01-17 10:17:00,
2013-01-17 05:22:00,33.5,29.5,29.95,SSW,194,2.0,6.0,85,0.00,,,0.00,HR-IXPWINDi_r2_v1.2.,2013-01-17 10:22:00,
2013-01-17 05:27:00,33.5,29.5,29.95,SSW,199,2.0,6.0,85,0.00,,,0.00,HR-IXPWINDi_r2_v1.2.,2013-01-17 10:27:00,
2013-01-17 05:32:00,33.5,29.5,29.95,SSW,203,0.0,5.0,85,0.00,,,0.00,HR-IXPWINDi_r2_v1.2.,2013-01-17 10:32:00,
2013-01-17 05:37:00,33.4,29.4,29.95,SSW,205,0.0,4.0,85,0.00,,,0.00,HR-IXPWINDi_r2_v1.2.,2013-01-17 10:37:00,
2013-01-17 05:42:00,33.3,29.3,29.96,South,176,0.0,4.0,85,0.00,,,0.00,HR-IXPWINDi_r2_v1.2.,2013-01-17 10:42:00,
2013-01-17 05:48:00,33.3,29.3,29.96,SSW,203,0.0,3.0,85,0.00,,,0.00,HR-IXPWINDi_r2_v1.2.,2013-01-17 10:48:00,
2013-01-17 05:53:00,33.2,29.2,29.96,SSW,193,0.0,3.0,85,0.00,,,0.00,HR-IXPWINDi_r2_v1.2.,2013-01-17 10:53:00,
2013-01-17 05:58:00,33.1,29.1,29.97,South,191,0.0,2.0,85,0.00,,,0.00,HR-IXPWINDi_r2_v1.2.,2013-01-17 10:58:00,
2013-01-17 06:03:00,33.1,29.1,29.97,SSW,193,0.0,4.0,85,0.00,,,0.00,HR-IXPWINDi_r2_v1.2.,2013-01-17 11:03:00,
2013-01-17 06:09:00,33.1,29.1,29.97,East,97,0.0,4.0,85,0.00,,,0.00,HR-IXPWINDi_r2_v1.2.,2013-01-17 11:09:00,
2013-01-17 06:14:00,33.0,29.0,29.98,South,191,0.0,4.0,85,0.00,,,0.00,HR-IXPWINDi_r2_v1.2.,2013-01-17 11:14:00,
2013-01-17 06:19:00,33.1,28.8,29.97,South,183,0.0,4.0,84,0.00,,,0.00,HR-IXPWINDi_r2_v1.2.,2013-01-17 11:19:00,
2013-01-17 06:24:00,33.1,28.8,29.98,South,170,0.0,3.0,84,0.00,,,0.00,HR-IXPWINDi_r2_v1.2.,2013-01-17 11:24:00,
2013-01-17 06:30:00,33.1,28.8,29.98,SSW,193,0.0,4.0,84,0.00,,,0.00,HR-IXPWINDi_r2_v1.2.,2013-01-17 11:30:00,
2013-01-17 06:35:00,33.1,28.8,29.98,South,170,1.0,4.0,84,0.00,,,0.00,HR-IXPWINDi_r2_v1.2.,2013-01-17 11:35:00,
2013-01-17 06:40:00,33.1,28.5,29.98,SSW,208,1.0,5.0,83,0.00,,,0.00,HR-IXPWINDi_r2_v1.2.,2013-01-17 11:40:00,
2013-01-17 06:45:00,33.2,28.6,29.98,SSW,204,0.0,5.0,83,0.00,,,0.00,HR-IXPWINDi_r2_v1.2.,2013-01-17 11:45:00,
2013-01-17 06:50:00,33.2,28.6,30.00,SW,220,0.0,3.0,83,0.00,,,0.00,HR-IXPWINDi_r2_v1.2.,2013-01-17 11:50:00,
2013-01-17 06:55:00,33.3,28.7,30.00,SSW,204,1.0,5.0,83,0.00,,,0.00,HR-IXPWINDi_r2_v1.2.,2013-01-17 11:55:00,
2013-01-17 07:01:00,33.3,28.4,30.00,SSW,194,0.0,5.0,82,0.00,,,0.00,HR-IXPWINDi_r2_v1.2.,2013-01-17 12:01:00,
2013-01-17 07:06:00,32.8,28.5,30.00,NNW,342,1.0,4.0,84,0.00,,,0.00,HR-IXPWINDi_r2_v1.2.,2013-01-17 12:06:00,
2013-01-17 07:11:00,32.3,28.6,30.01,NNW,342,0.0,2.0,86,0.00,,,0.00,HR-IXPWINDi_r2_v1.2.,2013-01-17 12:11:00,
2013-01-17 07:17:00,31.9,28.5,30.01,South,176,1.0,2.0,87,0.00,,,0.00,HR-IXPWINDi_r2_v1.2.,2013-01-17 12:17:00,
2013-01-17 07:22:00,31.5,28.6,30.01,SSE,159,0.0,2.0,89,0.00,,,0.00,HR-IXPWINDi_r2_v1.2.,2013-01-17 12:22:00,
2013-01-17 07:27:00,31.4,28.5,30.02,SSE,152,1.0,1.0,89,0.00,,,0.00,HR-IXPWINDi_r2_v1.2.,2013-01-17 12:27:00,
2013-01-17 07:33:00,31.3,28.7,30.02,SSE,152,0.0,1.0,90,0.00,,,0.00,HR-IXPWINDi_r2_v1.2.,2013-01-17 12:33:00,
2013-01-17 07:38:00,31.1,28.5,30.02,SSE,152,0.0,1.0,90,0.00,,,0.00,HR-IXPWINDi_r2_v1.2.,2013-01-17 12:38:00,
2013-01-17 07:43:00,31.2,28.6,30.01,SE,124,0.0,1.0,90,0.00,,,0.00,HR-IXPWINDi_r2_v1.2.,2013-01-17 12:43:00,
2013-01-17 07:48:00,31.3,28.7,30.01,SE,124,0.0,1.0,90,0.00,,,0.00,HR-IXPWINDi_r2_v1.2.,2013-01-17 12:48:00,
2013-01-17 07:53:00,31.2,28.6,30.02,SSE,159,0.0,1.0,90,0.00,,,0.00,HR-IXPWINDi_r2_v1.2.,2013-01-17 12:53:00,
2013-01-17 07:59:00,31.1,28.8,30.02,South,184,0.0,2.0,91,0.00,,,0.00,HR-IXPWINDi_r2_v1.2.,2013-01-17 12:59:00,
2013-01-17 08:04:00,30.9,28.6,30.02,South,184,0.0,2.0,91,0.00,,,0.00,HR-IXPWINDi_r2_v1.2.,2013-01-17 13:04:00,
2013-01-17 08:09:00,30.9,28.8,30.02,South,184,0.0,1.0,92,0.00,,,0.00,HR-IXPWINDi_r2_v1.2.,2013-01-17 13:09:00,
2013-01-17 08:14:00,31.5,28.9,30.02,South,186,0.0,5.0,90,0.00,,,0.00,HR-IXPWINDi_r2_v1.2.,2013-01-17 13:14:00,
2013-01-17 08:19:00,32.1,29.2,30.03,SSE,156,0.0,5.0,89,0.00,,,0.00,HR-IXPWINDi_r2_v1.2.,2013-01-17 13:19:00,
2013-01-17 08:25:00,32.3,29.1,30.03,SSW,196,0.0,2.0,88,0.00,,,0.00,HR-IXPWINDi_r2_v1.2.,2013-01-17 13:25:00,
2013-01-17 08:30:00,32.3,29.1,30.02,SSW,197,0.0,1.0,88,0.00,,,0.00,HR-IXPWINDi_r2_v1.2.,2013-01-17 13:30:00,
2013-01-17 08:35:00,32.5,29.3,30.03,NNW,338,0.0,2.0,88,0.00,,,0.00,HR-IXPWINDi_r2_v1.2.,2013-01-17 13:35:00,
2013-01-17 08:40:00,32.7,29.2,30.03,SSW,201,0.0,2.0,87,0.00,,,0.00,HR-IXPWINDi_r2_v1.2.,2013-01-17 13:40:00,
2013-01-17 08:45:00,32.9,29.4,30.03,SSW,201,0.0,2.0,87,0.00,,,0.00,HR-IXPWINDi_r2_v1.2.,2013-01-17 13:45:00,
2013-01-17 08:51:00,33.1,29.3,30.03,South,191,0.0,4.0,86,0.00,,,0.00,HR-IXPWINDi_r2_v1.2.,2013-01-17 13:51:00,
2013-01-17 08:56:00,33.3,29.3,30.03,South,181,1.0,4.0,85,0.00,,,0.00,HR-IXPWINDi_r2_v1.2.,2013-01-17 13:56:00,
2013-01-17 09:01:00,33.5,29.5,30.03,SSW,202,0.0,1.0,85,0.00,,,0.00,HR-IXPWINDi_r2_v1.2.,2013-01-17 14:01:00,
2013-01-17 09:06:00,33.8,29.5,30.04,SSW,193,0.0,2.0,84,0.00,,,0.00,HR-IXPWINDi_r2_v1.2.,2013-01-17 14:06:00,
2013-01-17 09:11:00,33.9,29.6,30.04,SSW,209,0.0,4.0,84,0.00,,,0.00,HR-IXPWINDi_r2_v1.2.,2013-01-17 14:11:00,
2013-01-17 09:17:00,34.1,30.0,30.04,SSE,163,0.0,4.0,85,0.00,,,0.00,HR-IXPWINDi_r2_v1.2.,2013-01-17 14:17:00,
2013-01-17 09:22:00,34.0,30.2,30.03,SSE,148,1.0,2.0,86,0.00,,,0.00,HR-IXPWINDi_r2_v1.2.,2013-01-17 14:22:00,
2013-01-17 09:27:00,34.2,30.7,30.04,SE,126,0.0,1.0,87,0.00,,,0.00,HR-IXPWINDi_r2_v1.2.,2013-01-17 14:27:00,
2013-01-17 09:32:00,34.2,30.7,30.05,SE,142,0.0,1.0,87,0.00,,,0.00,HR-IXPWINDi_r2_v1.2.,2013-01-17 14:32:00,
2013-01-17 09:38:00,34.4,30.3,30.06,SE,142,0.0,1.0,85,0.00,,,0.00,HR-IXPWINDi_r2_v1.2.,2013-01-17 14:38:00,
2013-01-17 09:43:00,34.7,30.9,30.05,South,173,1.0,1.0,86,0.00,,,0.00,HR-IXPWINDi_r2_v1.2.,2013-01-17 14:43:00,
2013-01-17 09:48:00,34.8,31.0,30.04,South,173,0.0,1.0,86,0.00,,,0.00,HR-IXPWINDi_r2_v1.2.,2013-01-17 14:48:00,
2013-01-17 09:53:00,34.8,31.0,30.06,South,189,1.0,2.0,86,0.00,,,0.00,HR-IXPWINDi_r2_v1.2.,2013-01-17 14:53:00,
2013-01-17 09:59:00,35.1,31.0,30.06,SSW,202,2.0,3.0,85,0.00,,,0.00,HR-IXPWINDi_r2_v1.2.,2013-01-17 14:59:00,
2013-01-17 10:04:00,35.3,30.9,30.06,South,184,1.0,3.0,84,0.00,,,0.00,HR-IXPWINDi_r2_v1.2.,2013-01-17 15:04:00,
2013-01-17 10:09:00,35.6,30.9,30.06,South,188,1.0,3.0,83,0.00,,,0.00,HR-IXPWINDi_r2_v1.2.,2013-01-17 15:09:00,
2013-01-17 10:14:00,35.8,31.1,30.06,South,190,0.0,3.0,83,0.00,,,0.00,HR-IXPWINDi_r2_v1.2.,2013-01-17 15:14:00,
2013-01-17 10:20:00,36.0,31.0,30.06,South,173,1.0,4.0,82,0.00,,,0.00,HR-IXPWINDi_r2_v1.2.,2013-01-17 15:20:00,
2013-01-17 10:25:00,36.1,32.0,30.05,South,174,0.0,4.0,85,0.00,,,0.00,HR-IXPWINDi_r2_v1.2.,2013-01-17 15:25:00,
2013-01-17 10:30:00,36.5,31.5,30.05,South,184,0.0,3.0,82,0.00,,,0.00,HR-IXPWINDi_r2_v1.2.,2013-01-17 15:30:00,
2013-01-17 10:35:00,36.7,31.1,30.06,SSE,166,1.0,2.0,80,0.00,,,0.00,HR-IXPWINDi_r2_v1.2.,2013-01-17 15:35:00,
2013-01-17 10:40:00,36.8,30.9,30.06,SSW,194,0.0,3.0,79,0.00,,,0.00,HR-IXPWINDi_r2_v1.2.,2013-01-17 15:40:00,
2013-01-17 10:45:00,37.0,31.1,30.06,SW,233,0.0,3.0,79,0.00,,,0.00,HR-IXPWINDi_r2_v1.2.,2013-01-17 15:45:00,
2013-01-17 10:51:00,37.3,31.0,30.05,SW,223,0.0,3.0,78,0.00,,,0.00,HR-IXPWINDi_r2_v1.2.,2013-01-17 15:51:00,
2013-01-17 10:56:00,37.7,31.1,30.05,South,184,1.0,4.0,77,0.00,,,0.00,HR-IXPWINDi_r2_v1.2.,2013-01-17 15:56:00,
2013-01-17 11:01:00,37.8,31.2,30.05,SSW,197,2.0,7.0,77,0.00,,,0.00,HR-IXPWINDi_r2_v1.2.,2013-01-17 16:01:00,
2013-01-17 11:06:00,37.9,31.3,30.05,SSW,203,3.0,7.0,77,0.00,,,0.00,HR-IXPWINDi_r2_v1.2.,2013-01-17 16:06:00,
2013-01-17 11:12:00,38.1,31.2,30.04,SW,218,2.0,7.0,76,0.00,,,0.00,HR-IXPWINDi_r2_v1.2.,2013-01-17 16:12:00,
2013-01-17 11:17:00,38.4,31.1,30.04,SW,235,2.0,7.0,75,0.00,,,0.01,HR-IXPWINDi_r2_v1.2.,2013-01-17 16:17:00,
2013-01-17 11:22:00,38.6,31.3,30.03,SSE,151,3.0,6.0,75,0.00,,,0.01,HR-IXPWINDi_r2_v1.2.,2013-01-17 16:22:00,
2013-01-17 11:27:00,38.8,31.5,30.03,SSE,153,5.0,7.0,75,0.00,,,0.01,HR-IXPWINDi_r2_v1.2.,2013-01-17 16:27:00,
2013-01-17 11:32:00,39.0,31.7,30.03,WSW,252,0.0,7.0,75,0.00,,,0.01,HR-IXPWINDi_r2_v1.2.,2013-01-17 16:32:00,
2013-01-17 11:38:00,39.1,31.5,30.04,SSW,201,4.0,7.0,74,0.00,,,0.01,HR-IXPWINDi_r2_v1.2.,2013-01-17 16:38:00,
2013-01-17 11:43:00,39.1,31.2,30.04,SSW,210,3.0,9.0,73,0.00,,,0.01,HR-IXPWINDi_r2_v1.2.,2013-01-17 16:43:00,
2013-01-17 11:48:00,39.1,30.8,30.04,SSW,199,5.0,9.0,72,0.00,,,0.02,HR-IXPWINDi_r2_v1.2.,2013-01-17 16:48:00,
2013-01-17 11:53:00,39.1,31.2,30.04,SW,214,1.0,8.0,73,0.00,,,0.02,HR-IXPWINDi_r2_v1.2.,2013-01-17 16:53:00,
2013-01-17 11:58:00,39.3,30.7,30.03,SSW,205,4.0,11.0,71,0.00,,,0.02,HR-IXPWINDi_r2_v1.2.,2013-01-17 16:58:00,
2013-01-17 12:04:00,39.4,31.1,30.03,NW,317,5.0,11.0,72,0.05,,,0.03,HR-IXPWINDi_r2_v1.2.,2013-01-17 17:04:00,
2013-01-17 12:09:00,39.6,30.9,30.03,SSW,194,6.0,8.0,71,0.05,,,0.03,HR-IXPWINDi_r2_v1.2.,2013-01-17 17:09:00,
2013-01-17 12:14:00,39.7,30.7,30.03,SSW,210,2.0,8.0,70,0.06,,,0.04,HR-IXPWINDi_r2_v1.2.,2013-01-17 17:14:00,
2013-01-17 12:19:00,40.0,31.3,30.03,SSW,207,6.0,8.0,71,0.06,,,0.04,HR-IXPWINDi_r2_v1.2.,2013-01-17 17:19:00,
2013-01-17 12:24:00,40.3,31.3,30.03,SSW,208,2.0,7.0,70,0.04,,,0.05,HR-IXPWINDi_r2_v1.2.,2013-01-17 17:24:00,
2013-01-17 12:29:00,40.5,30.4,30.03,SSW,199,1.0,7.0,67,0.04,,,0.05,HR-IXPWINDi_r2_v1.2.,2013-01-17 17:29:00,
2013-01-17 12:35:00,40.8,31.4,30.03,SSW,208,2.0,7.0,69,0.06,,,0.06,HR-IXPWINDi_r2_v1.2.,2013-01-17 17:35:00,
2013-01-17 12:40:00,40.9,30.8,30.03,South,173,2.0,4.0,67,0.06,,,0.06,HR-IXPWINDi_r2_v1.2.,2013-01-17 17:40:00,
2013-01-17 12:45:00,41.2,31.4,30.03,South,177,3.0,4.0,68,0.08,,,0.07,HR-IXPWINDi_r2_v1.2.,2013-01-17 17:45:00,
2013-01-17 12:50:00,41.2,30.7,30.03,South,173,0.0,4.0,66,0.08,,,0.08,HR-IXPWINDi_r2_v1.2.,2013-01-17 17:50:00,
2013-01-17 12:55:00,41.4,30.9,30.03,South,188,0.0,4.0,66,0.08,,,0.08,HR-IXPWINDi_r2_v1.2.,2013-01-17 17:55:00,
2013-01-17 13:00:00,41.7,31.2,30.03,South,188,0.0,2.0,66,0.07,,,0.09,HR-IXPWINDi_r2_v1.2.,2013-01-17 18:00:00,
2013-01-17 13:05:00,41.2,29.5,30.03,SW,219,0.0,2.0,63,0.07,,,0.09,HR-IXPWINDi_r2_v1.2.,2013-01-17 18:05:00,
2013-01-17 13:11:00,41.0,30.9,30.03,WSW,240,0.0,2.0,67,0.06,,,0.10,HR-IXPWINDi_r2_v1.2.,2013-01-17 18:11:00,
2013-01-17 13:16:00,40.9,29.6,30.03,WSW,242,0.0,2.0,64,0.06,,,0.10,HR-IXPWINDi_r2_v1.2.,2013-01-17 18:16:00,
2013-01-17 13:21:00,40.7,29.1,30.02,NNW,342,1.0,2.0,63,0.05,,,0.11,HR-IXPWINDi_r2_v1.2.,2013-01-17 18:21:00,
2013-01-17 13:26:00,40.7,29.4,30.03,SSW,206,1.0,2.0,64,0.05,,,0.11,HR-IXPWINDi_r2_v1.2.,2013-01-17 18:26:00,
2013-01-17 13:31:00,41.0,29.7,30.02,SSW,206,0.0,2.0,64,0.05,,,0.12,HR-IXPWINDi_r2_v1.2.,2013-01-17 18:31:00,
2013-01-17 13:37:00,41.6,29.5,30.02,SSW,206,0.0,1.0,62,0.05,,,0.12,HR-IXPWINDi_r2_v1.2.,2013-01-17 18:37:00,
2013-01-17 13:42:00,41.8,30.1,30.03,SW,230,0.0,2.0,63,0.05,,,0.12,HR-IXPWINDi_r2_v1.2.,2013-01-17 18:42:00,
2013-01-17 13:47:00,41.8,29.7,30.03,SSW,210,0.0,2.0,62,0.04,,,0.12,HR-IXPWINDi_r2_v1.2.,2013-01-17 18:47:00,
2013-01-17 13:52:00,41.6,29.9,30.03,WSW,243,0.0,1.0,63,0.04,,,0.13,HR-IXPWINDi_r2_v1.2.,2013-01-17 18:52:00,
2013-01-17 13:57:00,41.4,30.1,30.03,WSW,242,0.0,1.0,64,0.04,,,0.13,HR-IXPWINDi_r2_v1.2.,2013-01-17 18:57:00,
2013-01-17 14:03:00,41.3,30.0,30.03,WSW,242,0.0,1.0,64,0.04,,,0.13,HR-IXPWINDi_r2_v1.2.,2013-01-17 19:03:00,
2013-01-17 14:08:00,41.3,29.2,30.03,WSW,243,0.0,1.0,62,0.00,,,0.14,HR-IXPWINDi_r2_v1.2.,2013-01-17 19:08:00,
2013-01-17 14:13:00,41.3,29.6,30.04,WSW,243,1.0,2.0,63,0.00,,,0.14,HR-IXPWINDi_r2_v1.2.,2013-01-17 19:13:00,
2013-01-17 14:18:00,41.1,29.4,30.04,SSW,199,1.0,2.0,63,0.00,,,0.14,HR-IXPWINDi_r2_v1.2.,2013-01-17 19:18:00,
2013-01-17 14:23:00,41.0,29.3,30.04,NW,324,4.0,4.0,63,0.00,,,0.14,HR-IXPWINDi_r2_v1.2.,2013-01-17 19:23:00,
2013-01-17 14:29:00,40.7,29.1,30.03,WSW,255,0.0,4.0,63,0.00,,,0.15,HR-IXPWINDi_r2_v1.2.,2013-01-17 19:29:00,
2013-01-17 14:34:00,40.5,28.5,30.04,NNW,337,0.0,4.0,62,0.00,,,0.15,HR-IXPWINDi_r2_v1.2.,2013-01-17 19:34:00,
2013-01-17 14:39:00,40.2,28.6,30.04,WSW,248,3.0,5.0,63,0.00,,,0.15,HR-IXPWINDi_r2_v1.2.,2013-01-17 19:39:00,
2013-01-17 14:44:00,40.0,29.2,30.04,North,351,0.0,5.0,65,0.00,,,0.15,HR-IXPWINDi_r2_v1.2.,2013-01-17 19:44:00,
2013-01-17 14:49:00,40.1,28.1,30.04,NW,312,1.0,5.0,62,0.00,,,0.16,HR-IXPWINDi_r2_v1.2.,2013-01-17 19:49:00,
2013-01-17 14:55:00,40.1,28.5,30.04,WSW,250,0.0,5.0,63,0.00,,,0.16,HR-IXPWINDi_r2_v1.2.,2013-01-17 19:55:00,
2013-01-17 15:00:00,39.9,28.3,30.05,NNW,335,0.0,3.0,63,0.00,,,0.16,HR-IXPWINDi_r2_v1.2.,2013-01-17 20:00:00,
2013-01-17 15:05:00,39.9,28.7,30.04,WSW,237,1.0,3.0,64,0.00,,,0.16,HR-IXPWINDi_r2_v1.2.,2013-01-17 20:05:00,
2013-01-17 15:11:00,39.9,28.3,30.04,SW,235,1.0,3.0,63,0.00,,,0.17,HR-IXPWINDi_r2_v1.2.,2013-01-17 20:11:00,
2013-01-17 15:16:00,39.8,28.6,30.04,ESE,105,0.0,2.0,64,0.00,,,0.17,HR-IXPWINDi_r2_v1.2.,2013-01-17 20:16:00,
2013-01-17 15:21:00,39.7,28.5,30.04,West,265,2.0,7.0,64,0.00,,,0.17,HR-IXPWINDi_r2_v1.2.,2013-01-17 20:21:00,
2013-01-17 15:26:00,39.3,27.4,30.03,NNW,342,2.0,7.0,62,0.00,,,0.17,HR-IXPWINDi_r2_v1.2.,2013-01-17 20:26:00,
2013-01-17 15:31:00,38.9,26.6,30.04,NW,318,1.0,5.0,61,0.00,,,0.17,HR-IXPWINDi_r2_v1.2.,2013-01-17 20:31:00,
2013-01-17 15:37:00,38.7,26.4,30.04,NNW,335,1.0,5.0,61,0.00,,,0.17,HR-IXPWINDi_r2_v1.2.,2013-01-17 20:37:00,
2013-01-17 15:42:00,38.6,26.7,30.04,NNW,341,1.0,4.0,62,0.00,,,0.17,HR-IXPWINDi_r2_v1.2.,2013-01-17 20:42:00,
2013-01-17 15:47:00,38.4,26.5,30.05,NNW,335,2.0,4.0,62,0.00,,,0.18,HR-IXPWINDi_r2_v1.2.,2013-01-17 20:47:00,
2013-01-17 15:52:00,38.1,26.6,30.05,NNW,331,1.0,4.0,63,0.00,,,0.18,HR-IXPWINDi_r2_v1.2.,2013-01-17 20:52:00,
2013-01-17 15:58:00,37.8,25.9,30.05,NNE,13,0.0,4.0,62,0.00,,,0.18,HR-IXPWINDi_r2_v1.2.,2013-01-17 20:58:00,
2013-01-17 16:03:00,37.5,25.7,30.06,WSW,254,1.0,4.0,62,0.00,,,0.18,HR-IXPWINDi_r2_v1.2.,2013-01-17 21:03:00,
2013-01-17 16:08:00,37.2,25.8,30.06,West,272,1.0,4.0,63,0.00,,,0.18,HR-IXPWINDi_r2_v1.2.,2013-01-17 21:08:00,
2013-01-17 16:13:00,37.0,25.6,30.06,WNW,295,0.0,3.0,63,0.00,,,0.18,HR-IXPWINDi_r2_v1.2.,2013-01-17 21:13:00,
2013-01-17 16:19:00,36.8,25.8,30.06,WNW,293,0.0,1.0,64,0.00,,,0.18,HR-IXPWINDi_r2_v1.2.,2013-01-17 21:19:00,
2013-01-17 16:24:00,36.6,25.9,30.06,NNW,348,1.0,2.0,65,0.00,,,0.18,HR-IXPWINDi_r2_v1.2.,2013-01-17 21:24:00,
2013-01-17 16:29:00,36.4,26.1,30.07,NNW,348,0.0,2.0,66,0.00,,,0.18,HR-IXPWINDi_r2_v1.2.,2013-01-17 21:29:00,
2013-01-17 16:34:00,36.1,25.5,30.07,NNW,347,0.0,2.0,65,0.00,,,0.18,HR-IXPWINDi_r2_v1.2.,2013-01-17 21:34:00,
2013-01-17 16:39:00,36.0,25.4,30.07,NNW,344,1.0,2.0,65,0.00,,,0.18,HR-IXPWINDi_r2_v1.2.,2013-01-17 21:39:00,
2013-01-17 16:44:00,35.9,25.3,30.08,North,349,0.0,5.0,65,0.00,,,0.18,HR-IXPWINDi_r2_v1.2.,2013-01-17 21:44:00,
2013-01-17 16:50:00,35.7,25.8,30.08,NNW,341,0.0,5.0,67,0.00,,,0.19,HR-IXPWINDi_r2_v1.2.,2013-01-17 21:50:00,
2013-01-17 16:55:00,35.5,25.6,30.09,NNW,341,0.0,2.0,67,0.00,,,0.19,HR-IXPWINDi_r2_v1.2.,2013-01-17 21:55:00,
2013-01-17 17:00:00,35.3,25.1,30.09,West,269,0.0,2.0,66,0.00,,,0.19,HR-IXPWINDi_r2_v1.2.,2013-01-17 22:00:00,
2013-01-17 17:05:00,35.3,24.3,30.09,SE,133,0.0,2.0,64,0.00,,,0.19,HR-IXPWINDi_r2_v1.2.,2013-01-17 22:05:00,
2013-01-17 17:10:00,35.2,24.6,30.09,NNW,328,0.0,3.0,65,0.00,,,0.19,HR-IXPWINDi_r2_v1.2.,2013-01-17 22:10:00,
2013-01-17 17:15:00,35.1,24.1,30.09,NNW,328,0.0,3.0,64,0.00,,,0.19,HR-IXPWINDi_r2_v1.2.,2013-01-17 22:15:00,
2013-01-17 17:20:00,35.0,23.7,30.09,SW,219,0.0,4.0,63,0.00,,,0.19,HR-IXPWINDi_r2_v1.2.,2013-01-17 22:20:00,
2013-01-17 17:26:00,34.8,24.2,30.09,SW,217,0.0,4.0,65,0.00,,,0.19,HR-IXPWINDi_r2_v1.2.,2013-01-17 22:26:00,
2013-01-17 17:31:00,34.7,24.9,30.09,NW,319,0.0,2.0,67,0.00,,,0.19,HR-IXPWINDi_r2_v1.2.,2013-01-17 22:31:00,
2013-01-17 17:36:00,34.5,24.3,30.09,NW,320,0.0,2.0,66,0.00,,,0.19,HR-IXPWINDi_r2_v1.2.,2013-01-17 22:36:00,
2013-01-17 17:41:00,34.3,24.5,30.09,NW,320,0.0,1.0,67,0.00,,,0.19,HR-IXPWINDi_r2_v1.2.,2013-01-17 22:41:00,
2013-01-17 17:46:00,34.1,25.7,30.11,NW,320,0.0,1.0,71,0.00,,,0.19,HR-IXPWINDi_r2_v1.2.,2013-01-17 22:46:00,
2013-01-17 17:52:00,33.8,24.7,30.11,NW,320,0.0,0.0,69,0.00,,,0.19,HR-IXPWINDi_r2_v1.2.,2013-01-17 22:52:00,
2013-01-17 17:57:00,33.7,25.0,30.11,South,177,1.0,1.0,70,0.00,,,0.19,HR-IXPWINDi_r2_v1.2.,2013-01-17 22:57:00,
2013-01-17 18:02:00,33.7,25.0,30.11,NNW,344,0.0,3.0,70,0.00,,,0.19,HR-IXPWINDi_r2_v1.2.,2013-01-17 23:02:00,
2013-01-17 18:07:00,33.6,24.9,30.11,East,84,1.0,4.0,70,0.00,,,0.19,HR-IXPWINDi_r2_v1.2.,2013-01-17 23:07:00,
2013-01-17 18:12:00,33.4,24.3,30.11,WNW,287,1.0,4.0,69,0.00,,,0.19,HR-IXPWINDi_r2_v1.2.,2013-01-17 23:12:00,
2013-01-17 18:17:00,33.2,23.8,30.11,ESE,107,0.0,9.0,68,0.00,,,0.19,HR-IXPWINDi_r2_v1.2.,2013-01-17 23:17:00,
2013-01-17 18:22:00,33.0,24.3,30.11,NNW,347,3.0,9.0,70,0.00,,,0.19,HR-IXPWINDi_r2_v1.2.,2013-01-17 23:22:00,
2013-01-17 18:27:00,32.8,23.0,30.12,NNW,348,2.0,4.0,67,0.00,,,0.19,HR-IXPWINDi_r2_v1.2.,2013-01-17 23:27:00,
2013-01-17 18:32:00,32.6,22.9,30.12,North,3,3.0,6.0,67,0.00,,,0.19,HR-IXPWINDi_r2_v1.2.,2013-01-17 23:32:00,
2013-01-17 18:38:00,32.4,22.7,30.12,NE,39,2.0,6.0,67,0.00,,,0.19,HR-IXPWINDi_r2_v1.2.,2013-01-17 23:38:00,
2013-01-17 18:43:00,32.2,21.8,30.12,NNW,334,3.0,5.0,65,0.00,,,0.19,HR-IXPWINDi_r2_v1.2.,2013-01-17 23:43:00,
2013-01-17 18:48:00,32.1,22.0,30.12,NNW,335,1.0,5.0,66,0.00,,,0.19,HR-IXPWINDi_r2_v1.2.,2013-01-17 23:48:00,
2013-01-17 18:53:00,31.9,22.2,30.12,NNW,337,0.0,4.0,67,0.00,,,0.19,HR-IXPWINDi_r2_v1.2.,2013-01-17 23:53:00,
2013-01-17 18:58:00,31.7,22.0,30.13,NNW,347,1.0,4.0,67,0.00,,,0.19,HR-IXPWINDi_r2_v1.2.,2013-01-17 23:58:00,
2013-01-17 19:03:00,31.5,22.2,30.14,NW,321,5.0,5.0,68,0.00,,,0.19,HR-IXPWINDi_r2_v1.2.,2013-01-18 00:03:00,
2013-01-17 19:09:00,31.1,22.1,30.13,WNW,285,1.0,7.0,69,0.00,,,0.19,HR-IXPWINDi_r2_v1.2.,2013-01-18 00:09:00,
2013-01-17 19:14:00,30.7,22.1,30.13,West,269,0.0,7.0,70,0.00,,,0.19,HR-IXPWINDi_r2_v1.2.,2013-01-18 00:14:00,
2013-01-17 19:19:00,30.4,22.1,30.13,NNW,348,3.0,6.0,71,0.00,,,0.19,HR-IXPWINDi_r2_v1.2.,2013-01-18 00:19:00,
2013-01-17 19:24:00,30.2,22.3,30.14,NNW,347,3.0,4.0,72,0.00,,,0.19,HR-IXPWINDi_r2_v1.2.,2013-01-18 00:24:00,
2013-01-17 19:29:00,29.9,22.3,30.14,NNW,341,2.0,7.0,73,0.00,,,0.19,HR-IXPWINDi_r2_v1.2.,2013-01-18 00:29:00,
2013-01-17 19:34:00,29.7,22.1,30.13,NE,54,3.0,7.0,73,0.00,,,0.19,HR-IXPWINDi_r2_v1.2.,2013-01-18 00:34:00,
2013-01-17 19:39:00,29.4,21.5,30.13,NNW,344,5.0,9.0,72,0.00,,,0.19,HR-IXPWINDi_r2_v1.2.,2013-01-18 00:39:00,
2013-01-17 19:45:00,29.2,21.6,30.13,ESE,115,3.0,9.0,73,0.00,,,0.19,HR-IXPWINDi_r2_v1.2.,2013-01-18 00:45:00,
2013-01-17 19:50:00,28.8,21.2,30.13,NW,321,4.0,7.0,73,0.00,,,0.19,HR-IXPWINDi_r2_v1.2.,2013-01-18 00:50:00,
2013-01-17 19:55:00,28.6,20.7,30.13,NNW,337,3.0,7.0,72,0.00,,,0.19,HR-IXPWINDi_r2_v1.2.,2013-01-18 00:55:00,
2013-01-17 20:00:00,28.4,20.2,30.13,North,1,2.0,7.0,71,0.00,,,0.19,HR-IXPWINDi_r2_v1.2.,2013-01-18 01:00:00,
2013-01-17 20:05:00,28.3,20.8,30.13,North,354,3.0,7.0,73,0.00,,,0.19,HR-IXPWINDi_r2_v1.2.,2013-01-18 01:05:00,
2013-01-17 20:11:00,28.2,20.3,30.13,ENE,77,0.0,5.0,72,0.00,,,0.19,HR-IXPWINDi_r2_v1.2.,2013-01-18 01:11:00,
2013-01-17 20:16:00,28.1,19.9,30.13,NW,323,0.0,6.0,71,0.00,,,0.19,HR-IXPWINDi_r2_v1.2.,2013-01-18 01:16:00,
2013-01-17 20:21:00,27.9,19.7,30.13,North,354,2.0,9.0,71,0.00,,,0.19,HR-IXPWINDi_r2_v1.2.,2013-01-18 01:21:00,
2013-01-17 20:26:00,27.7,19.2,30.13,NNW,348,2.0,12.0,70,0.00,,,0.19,HR-IXPWINDi_r2_v1.2.,2013-01-18 01:26:00,
2013-01-17 20:31:00,27.6,19.4,30.13,NNW,338,3.0,12.0,71,0.00,,,0.19,HR-IXPWINDi_r2_v1.2.,2013-01-18 01:31:00,
2013-01-17 20:36:00,27.5,19.0,30.14,North,354,3.0,6.0,70,0.00,,,0.19,HR-IXPWINDi_r2_v1.2.,2013-01-18 01:36:00,
2013-01-17 20:41:00,27.3,18.8,30.14,NNW,341,3.0,8.0,70,0.00,,,0.19,HR-IXPWINDi_r2_v1.2.,2013-01-18 01:41:00,
2013-01-17 20:47:00,27.2,18.4,30.13,North,6,2.0,8.0,69,0.00,,,0.19,HR-IXPWINDi_r2_v1.2.,2013-01-18 01:47:00,
2013-01-17 20:52:00,27.0,17.5,30.13,NNW,334,8.0,10.0,67,0.00,,,0.19,HR-IXPWINDi_r2_v1.2.,2013-01-18 01:52:00,
2013-01-17 20:57:00,26.9,17.8,30.13,North,351,5.0,10.0,68,0.00,,,0.19,HR-IXPWINDi_r2_v1.2.,2013-01-18 01:57:00,
2013-01-17 21:02:00,26.7,17.2,30.12,South,178,1.0,10.0,67,0.00,,,0.19,HR-IXPWINDi_r2_v1.2.,2013-01-18 02:02:00,
2013-01-17 21:07:00,26.7,17.6,30.12,NNW,348,1.0,5.0,68,0.00,,,0.19,HR-IXPWINDi_r2_v1.2.,2013-01-18 02:07:00,
2013-01-17 21:12:00,26.7,17.6,30.12,NE,50,2.0,4.0,68,0.00,,,0.19,HR-IXPWINDi_r2_v1.2.,2013-01-18 02:12:00,
2013-01-17 21:17:00,26.6,17.1,30.13,North,352,5.0,6.0,67,0.00,,,0.19,HR-IXPWINDi_r2_v1.2.,2013-01-18 02:17:00,
2013-01-17 21:23:00,26.5,16.3,30.12,North,356,2.0,8.0,65,0.00,,,0.19,HR-IXPWINDi_r2_v1.2.,2013-01-18 02:23:00,
2013-01-17 21:28:00,26.4,16.3,30.12,North,5,0.0,8.0,65,0.00,,,0.19,HR-IXPWINDi_r2_v1.2.,2013-01-18 02:28:00,
2013-01-17 21:33:00,26.4,15.9,30.12,NW,314,3.0,7.0,64,0.00,,,0.19,HR-IXPWINDi_r2_v1.2.,2013-01-18 02:33:00,
2013-01-17 21:38:00,26.3,15.8,30.12,North,355,4.0,7.0,64,0.00,,,0.19,HR-IXPWINDi_r2_v1.2.,2013-01-18 02:38:00,
2013-01-17 21:43:00,26.2,16.1,30.12,NNE,29,5.0,7.0,65,0.00,,,0.19,HR-IXPWINDi_r2_v1.2.,2013-01-18 02:43:00,
2013-01-17 21:49:00,26.2,15.7,30.12,NNW,342,1.0,7.0,64,0.00,,,0.19,HR-IXPWINDi_r2_v1.2.,2013-01-18 02:49:00,
2013-01-17 21:54:00,26.1,16.0,30.12,North,356,3.0,7.0,65,0.00,,,0.19,HR-IXPWINDi_r2_v1.2.,2013-01-18 02:54:00,
2013-01-17 21:59:00,26.1,15.6,30.12,NNW,347,1.0,7.0,64,0.00,,,0.19,HR-IXPWINDi_r2_v1.2.,2013-01-18 02:59:00,
2013-01-17 22:04:00,26.0,15.5,30.12,NW,305,4.0,7.0,64,0.00,,,0.19,HR-IXPWINDi_r2_v1.2.,2013-01-18 03:04:00,
2013-01-17 22:09:00,25.9,15.1,30.12,NW,321,2.0,7.0,63,0.00,,,0.19,HR-IXPWINDi_r2_v1.2.,2013-01-18 03:09:00,
2013-01-17 22:14:00,25.9,15.4,30.11,NW,316,2.0,7.0,64,0.00,,,0.19,HR-IXPWINDi_r2_v1.2.,2013-01-18 03:14:00,
2013-01-17 22:19:00,25.8,15.3,30.10,NNE,13,1.0,7.0,64,0.00,,,0.19,HR-IXPWINDi_r2_v1.2.,2013-01-18 03:19:00,
2013-01-17 22:25:00,25.8,15.0,30.11,NNW,342,2.0,5.0,63,0.00,,,0.19,HR-IXPWINDi_r2_v1.2.,2013-01-18 03:25:00,
2013-01-17 22:30:00,25.7,14.9,30.10,SE,145,2.0,5.0,63,0.00,,,0.19,HR-IXPWINDi_r2_v1.2.,2013-01-18 03:30:00,
2013-01-17 22:35:00,25.5,14.3,30.11,ESE,122,1.0,7.0,62,0.00,,,0.19,HR-IXPWINDi_r2_v1.2.,2013-01-18 03:35:00,
2013-01-17 22:40:00,25.5,14.3,30.11,NNW,344,1.0,7.0,62,0.00,,,0.19,HR-IXPWINDi_r2_v1.2.,2013-01-18 03:40:00,
2013-01-17 22:46:00,25.5,14.7,30.11,NNW,344,2.0,6.0,63,0.00,,,0.19,HR-IXPWINDi_r2_v1.2.,2013-01-18 03:46:00,
2013-01-17 22:51:00,25.4,14.6,30.11,NW,325,0.0,4.0,63,0.00,,,0.19,HR-IXPWINDi_r2_v1.2.,2013-01-18 03:51:00,
2013-01-17 22:56:00,25.4,14.6,30.10,NNW,331,1.0,4.0,63,0.00,,,0.19,HR-IXPWINDi_r2_v1.2.,2013-01-18 03:56:00,
2013-01-17 23:01:00,25.3,14.1,30.10,NW,317,1.0,6.0,62,0.00,,,0.19,HR-IXPWINDi_r2_v1.2.,2013-01-18 04:01:00,
2013-01-17 23:07:00,25.3,14.9,30.09,NNW,335,0.0,6.0,64,0.00,,,0.19,HR-IXPWINDi_r2_v1.2.,2013-01-18 04:07:00,
2013-01-17 23:12:00,25.3,14.9,30.09,NW,323,0.0,5.0,64,0.00,,,0.19,HR-IXPWINDi_r2_v1.2.,2013-01-18 04:12:00,
2013-01-17 23:17:00,25.2,13.7,30.09,NNW,338,1.0,5.0,61,0.00,,,0.19,HR-IXPWINDi_r2_v1.2.,2013-01-18 04:17:00,
2013-01-17 23:22:00,25.1,14.7,30.09,WNW,284,0.0,5.0,64,0.00,,,0.19,HR-IXPWINDi_r2_v1.2.,2013-01-18 04:22:00,
2013-01-17 23:28:00,25.1,14.7,30.10,ESE,112,3.0,3.0,64,0.00,,,0.19,HR-IXPWINDi_r2_v1.2.,2013-01-18 04:28:00,
2013-01-17 23:33:00,25.1,14.3,30.11,NNW,331,0.0,3.0,63,0.00,,,0.19,HR-IXPWINDi_r2_v1.2.,2013-01-18 04:33:00,
2013-01-17 23:38:00,25.1,14.7,30.12,West,261,0.0,3.0,64,0.00,,,0.19,HR-IXPWINDi_r2_v1.2.,2013-01-18 04:38:00,
2013-01-17 23:43:00,25.1,13.6,30.13,NNW,348,2.0,4.0,61,0.00,,,0.19,HR-IXPWINDi_r2_v1.2.,2013-01-18 04:43:00,
2013-01-17 23:48:00,25.1,13.9,30.13,NNW,338,0.0,4.0,62,0.00,,,0.19,HR-IXPWINDi_r2_v1.2.,2013-01-18 04:48:00,
2013-01-17 23:53:00,25.1,13.9,30.12,NNW,335,1.0,4.0,62,0.00,,,0.19,HR-IXPWINDi_r2_v1.2.,2013-01-18 04:53:00,
2013-01-17 23:59:00,25.1,13.6,30.13,NNW,342,3.0,7.0,61,0.00,,,0.19,HR-IXPWINDi_r2_v1.2.,2013-01-18 04:59:00,